Precipitable_Water
1.42 1.49 1.52 1.54 1.56 1.58 1.62 1.59 1.57 1.53 1.52 1.56 1.50 1.48 1.46 1.53 1.52 1.52 1.55 1.59 1.62 1.61 1.65 1.66 1.68 1.67 1.65 1.65 1.64 1.61 1.58 1.64 1.67 1.70 1.68 1.65 1.65 1.64 1.62 1.64 1.66 1.64
1.37 1.44 1.49 1.54 1.56 1.59 1.61 1.63 1.61 1.59 1.58 1.56 1.59 1.59 1.58 1.55 1.56 1.55 1.53 1.54 1.58 1.60 1.63 1.67 1.69 1.67 1.64 1.64 1.68 1.61 1.59 1.59 1.58 1.65 1.65 1.68 1.67 1.63 1.61 1.60 1.57 1.58
1.32 1.38 1.42 1.45 1.50 1.55 1.56 1.60 1.59 1.59 1.57 1.59 1.61 1.60 1.60 1.59 1.57 1.59 1.59 1.58 1.59 1.64 1.68 1.66 1.64 1.64 1.63 1.63 1.59 1.55 1.54 1.54 1.52 1.63 1.67 1.65 1.61 1.56 1.54 1.54 1.55 1.56
1.25 1.33 1.39 1.42 1.46 1.51 1.56 1.58 1.60 1.58 1.59 1.57 1.59 1.63 1.60 1.62 1.62 1.62 1.62 1.60 1.60 1.61 1.64 1.65 1.65 1.66 1.66 1.63 1.61 1.58 1.59 1.58 1.61 1.63 1.61 1.59 1.57 1.54 1.52 1.53 1.54 1.55
1.24 1.27 1.32 1.40 1.46 1.48 1.52 1.54 1.57 1.60 1.56 1.57 1.60 1.62 1.62 1.59 1.60 1.60 1.62 1.64 1.61 1.58 1.58 1.55 1.56 1.57 1.61 1.61 1.63 1.59 1.61 1.59 1.64 1.62 1.55 1.51 1.53 1.55 1.59 1.57 1.55 1.54
1.28 1.28 1.30 1.31 1.39 1.43 1.43 1.46 1.52 1.57 1.58 1.55 1.56 1.61 1.61 1.62 1.59 1.58 1.62 1.62 1.63 1.58 1.55 1.59 1.59 1.61 1.63 1.65 1.63 1.61 1.64 1.66 1.73 1.76 1.65 1.58 1.64 1.64 1.66 1.67 1.65 1.62
1.29 1.27 1.26 1.30 1.29 1.35 1.39 1.41 1.46 1.51 1.54 1.56 1.59 1.56 1.58 1.60 1.58 1.57 1.57 1.59 1.59 1.63 1.64 1.64 1.65 1.67 1.72 1.74 1.72 1.70 1.66 1.64 1.63 1.64 1.61 1.59 1.62 1.65 1.70 1.68 1.66 1.63
1.32 1.32 1.30 1.29 1.27 1.28 1.31 1.34 1.38 1.44 1.49 1.52 1.52 1.56 1.57 1.55 1.56 1.57 1.58 1.56 1.56 1.57 1.58 1.61 1.66 1.70 1.67 1.70 1.71 1.70 1.67 1.69 1.70 1.73 1.66 1.63 1.62 1.63 1.68 1.67 1.69 1.65
1.36 1.32 1.30 1.28 1.25 1.23 1.24 1.28 1.33 1.37 1.45 1.44 1.45 1.49 1.54 1.51 1.51 1.53 1.56 1.58 1.57 1.58 1.61 1.62 1.69 1.69 1.74 1.71 1.73 1.71 1.66 1.69 1.72 1.75 1.76 1.73 1.72 1.76 1.81 1.84 1.70 1.61
1.41 1.35 1.29 1.27 1.23 1.22 1.20 1.23 1.29 1.34 1.41 1.39 1.41 1.44 1.45 1.52 1.50 1.52 1.54 1.55 1.53 1.52 1.54 1.60 1.65 1.69 1.71 1.72 1.69 1.69 1.63 1.55 1.60 1.72 1.80 1.80 1.83 1.85 1.85 1.77 1.74 1.69
1.43 1.41 1.32 1.26 1.23 1.22 1.19 1.19 1.21 1.25 1.31 1.35 1.39 1.37 1.39 1.45 1.54 1.53 1.48 1.49 1.49 1.48 1.51 1.55 1.59 1.62 1.62 1.63 1.66 1.68 1.68 1.72 1.74 1.74 1.79 1.77 1.83 1.85 1.85 1.84 1.78 1.75
1.45 1.43 1.37 1.30 1.25 1.22 1.20 1.21 1.22 1.22 1.23 1.27 1.31 1.33 1.35 1.37 1.43 1.53 1.53 1.48 1.46 1.46 1.49 1.51 1.53 1.52 1.53 1.61 1.66 1.73 1.77 1.78 1.79 1.80 1.81 1.84 1.83 1.90 1.92 1.89 1.85 1.87
1.51 1.45 1.43 1.39 1.34 1.28 1.24 1.20 1.20 1.24 1.25 1.24 1.28 1.30 1.30 1.31 1.37 1.43 1.48 1.47 1.46 1.43 1.43 1.47 1.46 1.46 1.54 1.64 1.65 1.72 1.82 1.85 1.86 1.88 1.88 1.89 1.92 1.96 1.97 1.95 1.95 1.98
1.54 1.58 1.53 1.48 1.45 1.41 1.34 1.26 1.20 1.20 1.25 1.28 1.30 1.29 1.28 1.28 1.29 1.32 1.41 1.43 1.40 1.40 1.41 1.41 1.42 1.43 1.59 1.61 1.65 1.74 1.80 1.85 1.87 1.88 1.91 1.92 1.95 1.99 2.03 2.04 2.03 1.99
1.60 1.61 1.64 1.62 1.55 1.49 1.45 1.40 1.34 1.26 1.25 1.25 1.28 1.28 1.29 1.29 1.27 1.26 1.29 1.35 1.40 1.40 1.39 1.38 1.37 1.42 1.62 1.67 1.71 1.71 1.77 1.85 1.92 1.93 1.93 1.96 2.01 2.04 2.07 2.04 2.01 1.98
1.70 1.64 1.62 1.63 1.62 1.58 1.53 1.51 1.46 1.42 1.36 1.30 1.28 1.26 1.24 1.26 1.26 1.25 1.23 1.24 1.28 1.35 1.37 1.35 1.34 1.45 1.63 1.64 1.70 1.74 1.80 1.89 1.95 1.98 1.99 2.00 2.00 2.02 2.03 2.02 1.97 1.94
1.80 1.73 1.68 1.63 1.64 1.64 1.61 1.57 1.53 1.49 1.44 1.39 1.34 1.31 1.27 1.26 1.21 1.17 1.19 1.20 1.22 1.27 1.34 1.40 1.39 1.48 1.59 1.56 1.63 1.73 1.80 1.86 1.92 1.98 2.01 1.99 1.99 1.99 1.98 2.00 2.01 1.98
1.81 1.79 1.73 1.67 1.66 1.65 1.65 1.63 1.59 1.54 1.49 1.45 1.41 1.38 1.35 1.31 1.25 1.21 1.20 1.22 1.23 1.27 1.33 1.39 1.43 1.57 1.53 1.52 1.60 1.69 1.76 1.82 1.88 1.89 1.91 1.95 2.00 2.01 2.01 2.02 2.03 2.00
1.81 1.78 1.77 1.75 1.69 1.66 1.66 1.66 1.63 1.58 1.53 1.48 1.44 1.47 1.47 1.42 1.35 1.30 1.28 1.27 1.27 1.28 1.33 1.39 1.47 1.50 1.49 1.49 1.56 1.65 1.72 1.76 1.82 1.87 1.88 1.91 1.94 1.95 1.99 2.04 2.05 1.97
1.84 1.78 1.75 1.80 1.79 1.72 1.68 1.65 1.63 1.61 1.60 1.58 1.54 1.54 1.51 1.48 1.46 1.40 1.35 1.33 1.33 1.34 1.38 1.38 1.43 1.45 1.47 1.48 1.54 1.64 1.70 1.73 1.78 1.82 1.81 1.84 1.92 2.01 2.04 2.00 1.94 1.83
1.87 1.81 1.75 1.77 1.81 1.79 1.73 1.66 1.63 1.63 1.64 1.64 1.60 1.56 1.53 1.50 1.48 1.49 1.47 1.44 1.41 1.41 1.43 1.46 1.38 1.42 1.45 1.48 1.54 1.63 1.67 1.70 1.74 1.79 1.80 1.82 1.86 1.91 1.91 1.88 1.83 1.76
1.89 1.86 1.80 1.77 1.77 1.80 1.76 1.69 1.65 1.63 1.63 1.69 1.68 1.67 1.65 1.63 1.61 1.59 1.55 1.53 1.52 1.49 1.48 1.49 1.39 1.45 1.46 1.49 1.55 1.61 1.64 1.66 1.69 1.72 1.76 1.76 1.72 1.74 1.78 1.80 1.78 1.76
1.91 1.91 1.88 1.84 1.80 1.76 1.76 1.74 1.70 1.66 1.68 1.75 1.69 1.68 1.67 1.66 1.63 1.60 1.62 1.60 1.57 1.56 1.55 1.47 1.40 1.47 1.50 1.54 1.59 1.61 1.61 1.65 1.68 1.71 1.65 1.60 1.66 1.72 1.75 1.80 1.84 1.85
1.91 1.93 1.92 1.90 1.87 1.82 1.78 1.79 1.80 1.78 1.74 1.78 1.73 1.69 1.66 1.69 1.70 1.65 1.64 1.65 1.61 1.56 1.54 1.44 1.44 1.50 1.53 1.56 1.59 1.62 1.66 1.69 1.71 1.62 1.57 1.62 1.72 1.82 1.85 1.86 1.84 1.78
1.90 1.92 1.91 1.91 1.90 1.88 1.90 1.87 1.84 1.82 1.83 1.86 1.83 1.79 1.75 1.76 1.73 1.65 1.63 1.64 1.63 1.58 1.51 1.49 1.49 1.52 1.56 1.58 1.61 1.64 1.67 1.74 1.69 1.63 1.58 1.58 1.63 1.76 1.87 1.87 1.81 1.70
1.70 1.83 1.90 1.90 1.90 1.94 1.97 1.96 1.98 1.94 1.89 1.89 1.89 1.85 1.81 1.80 1.74 1.68 1.61 1.59 1.59 1.54 1.54 1.56 1.52 1.55 1.59 1.60 1.62 1.64 1.69 1.70 1.65 1.66 1.67 1.71 1.69 1.64 1.58 1.59 1.64 1.64
Wind_Speed
15 14 13 13 13 12 12 12 12 12 12 12 12 11 11 11 11 11 11 11 11 10 10 9 9 9 8 8 7 7 7 7 7 6 6 6 6 6 6 6 6 6
15 14 14 14 13 13 13 12 12 12 12 12 12 11 11 12 11 11 11 11 11 10 10 10 9 9 9 8 8 7 7 7 7 7 7 6 6 6 6 6 6 6
16 15 15 15 14 14 14 13 13 13 13 12 12 12 12 12 12 12 12 11 11 11 10 10 10 9 9 9 8 8 8 8 7 7 7 7 7 7 7 6 6 6
16 16 16 15 15 15 14 14 14 13 13 13 13 13 13 12 12 12 12 12 11 11 11 10 10 10 9 9 9 8 8 8 8 8 7 7 7 7 7 7 7 7
16 16 16 16 16 15 15 15 14 14 14 14 13 13 13 13 13 12 12 12 11 11 11 11 10 10 10 9 9 9 8 8 8 8 8 8 7 7 7 7 7 7
16 17 17 16 16 16 16 16 15 15 14 14 14 13 13 13 13 13 12 12 12 11 11 11 11 11 10 10 10 9 9 9 8 8 8 8 7 7 7 7 7 7
17 17 17 17 17 17 17 17 16 15 15 14 14 14 14 14 13 13 13 12 12 12 11 11 11 11 10 10 10 10 10 9 9 9 9 8 8 8 8 8 8 8
17 17 17 18 18 18 18 17 17 16 16 15 15 15 14 14 14 13 13 13 13 12 12 11 11 11 11 10 10 10 10 10 10 9 9 9 9 9 9 9 9 9
18 18 18 18 18 18 19 18 18 17 17 16 16 15 15 15 14 14 14 13 13 13 12 12 12 11 11 11 11 11 10 10 10 10 10 10 10 10 10 10 10 10
19 19 19 19 19 19 19 19 19 18 18 17 17 16 16 15 15 15 15 14 14 14 13 13 13 12 12 12 11 11 11 11 11 11 11 11 11 11 11 11 11 11
20 20 20 20 19 19 20 20 20 19 19 18 18 17 17 16 16 16 16 15 15 14 14 14 14 13 13 12 12 11 11 11 11 11 11 12 12 12 12 12 12 12
21 21 21 21 20 20 20 20 20 20 20 19 19 18 18 17 17 17 16 16 16 15 15 15 14 14 14 13 13 12 12 12 12 12 12 12 13 13 13 13 13 13
22 21 21 21 21 21 21 21 21 21 21 20 20 19 19 19 18 18 17 17 17 16 16 16 15 15 15 14 14 13 13 13 13 13 13 13 13 13 13 13 13 13
23 22 22 22 21 21 21 21 21 21 21 21 20 20 20 20 20 19 18 18 18 17 17 17 16 16 16 15 15 14 14 14 14 14 13 13 13 13 14 14 14 14
24 23 23 22 22 22 22 22 22 22 22 22 21 21 21 20 20 20 19 19 18 18 18 18 17 17 17 16 16 15 15 14 14 14 14 14 14 14 14 14 14 14
25 24 24 24 24 23 23 23 23 22 22 22 22 22 22 21 21 21 20 20 19 19 19 19 18 18 18 17 16 16 16 15 15 15 15 15 15 15 15 14 14 14
26 25 25 25 25 25 24 24 24 24 23 23 23 23 23 23 22 22 22 21 20 20 19 19 19 19 18 18 17 17 17 16 16 16 15 15 15 15 15 15 14 14
27 26 26 26 26 26 26 25 25 25 24 24 24 24 23 23 23 23 23 22 21 21 20 20 19 19 19 19 19 18 18 17 17 16 16 16 16 16 15 15 14 14
28 28 28 27 27 27 27 26 26 26 25 25 25 25 24 24 24 24 23 23 23 22 22 21 21 20 20 20 20 19 19 18 17 17 17 16 16 16 15 15 15 15
29 29 29 29 28 28 28 28 27 27 26 26 26 25 25 25 24 24 24 24 24 23 23 22 22 22 21 21 21 20 20 19 19 18 18 18 17 17 17 16 16 16
30 30 30 30 30 29 29 29 28 28 27 27 27 27 26 26 25 25 25 25 25 24 24 23 23 23 23 22 22 21 21 20 20 19 19 19 18 18 18 17 17 17
31 32 32 31 31 31 30 30 29 29 28 28 27 27 27 27 27 26 26 26 25 25 25 24 23 23 23 23 23 22 21 21 21 20 20 19 19 19 19 19 18 18
31 32 33 33 33 32 32 31 31 30 30 29 28 28 28 28 27 27 26 26 26 26 25 25 24 24 24 24 24 23 22 22 22 21 21 20 20 20 20 20 20 19
29 31 32 33 34 34 33 32 32 31 31 30 29 29 28 28 28 27 27 27 27 27 26 26 26 25 25 25 25 24 24 23 22 22 22 21 21 21 21 21 20 20
27 30 31 33 34 34 34 34 33 33 32 31 30 30 29 29 28 28 28 28 27 27 27 26 26 26 26 26 26 25 25 24 23 23 23 22 22 21 21 20 20 20
26 28 30 32 33 34 35 35 35 34 33 33 31 30 29 29 28 28 28 28 27 27 27 26 26 26 26 26 26 26 26 25 25 24 23 23 22 22 21 21 21 20
Wind_Direction
212 212 211 211 211 211 210 211 211 211 210 210 209 208 207 208 208 207 207 208 210 211 212 213 213 215 218 220 222 225 228 232 235 236 240 245 249 254 259 262 264 268
213 213 212 211 211 211 210 211 212 211 211 212 211 210 209 210 210 210 210 211 212 213 214 215 216 218 221 223 225 228 231 234 237 238 242 246 250 254 258 259 261 264
214 214 213 212 211 211 211 211 212 212 212 213 213 213 212 211 211 212 213 213 214 215 216 217 218 220 224 226 228 231 233 235 238 239 242 246 250 254 256 259 261 264
216 215 215 214 213 212 212 212 212 212 213 213 214 213 212 212 212 213 214 215 216 217 218 219 221 223 225 227 229 231 234 237 240 241 244 247 250 254 257 259 261 263
217 216 216 215 215 214 214 213 213 213 213 214 214 213 213 213 214 214 214 215 216 218 219 221 223 224 226 228 230 233 236 239 241 242 246 249 251 253 256 259 262 265
218 217 217 217 217 216 215 214 214 214 214 214 214 214 214 214 215 215 215 215 216 217 219 221 222 224 226 229 232 234 236 240 241 242 245 250 252 254 256 260 264 268
220 219 218 219 218 218 217 216 215 215 215 215 215 215 215 215 216 215 216 216 218 219 221 222 224 226 228 230 233 235 237 240 243 244 247 251 253 256 260 264 266 269
221 221 220 220 220 219 219 218 217 217 216 216 217 217 217 217 217 217 217 218 219 221 223 225 227 229 231 232 234 236 238 240 242 244 248 252 256 259 262 263 264 267
222 222 222 222 222 221 220 219 219 218 218 218 219 218 218 218 219 219 219 219 220 223 225 226 228 229 231 233 236 239 242 245 248 250 252 255 258 260 260 261 265 268
223 224 224 224 223 223 222 221 220 220 220 220 220 220 220 220 220 220 221 222 223 225 227 229 230 231 233 235 239 242 247 252 257 260 262 264 265 263 261 264 268 270
224 224 224 225 225 225 224 223 222 222 221 222 222 222 222 222 222 222 223 224 226 228 230 231 232 234 236 238 240 243 249 253 257 261 264 267 268 266 264 267 269 270
225 225 225 225 225 226 226 225 224 224 224 224 224 224 224 224 224 224 225 227 228 230 231 233 234 236 238 239 240 245 250 254 256 259 262 264 266 265 265 268 269 270
228 227 227 227 226 227 227 227 226 226 226 226 226 225 226 226 226 227 228 230 231 231 233 234 236 238 238 239 242 248 252 255 258 259 262 264 266 266 266 267 269 270
230 229 228 228 227 227 228 229 228 228 228 228 228 228 228 228 229 229 230 231 232 233 234 235 237 239 239 240 245 249 253 256 259 260 262 264 265 266 266 268 270 271
232 231 231 230 229 229 230 230 230 230 230 230 230 230 230 230 231 231 231 232 232 234 235 237 239 240 239 241 245 249 252 256 259 260 261 263 265 266 266 269 272 273
232 233 233 232 232 232 231 231 232 232 232 232 232 232 232 232 232 232 232 233 233 235 237 239 241 240 239 241 246 250 253 256 259 260 262 264 266 267 267 269 272 274
232 233 234 233 233 233 233 233 233 234 234 234 234 233 233 234 234 235 235 235 236 237 238 241 242 240 239 242 246 250 253 257 259 261 262 264 265 266 267 269 271 274
233 234 234 234 234 234 234 234 235 235 236 236 236 235 235 235 235 236 236 237 238 238 240 242 242 241 240 243 246 249 253 257 260 261 262 263 264 266 268 268 270 272
234 234 235 235 235 235 235 234 235 236 236 236 237 237 237 236 236 237 237 238 239 240 241 242 242 242 243 244 246 248 252 256 259 260 261 262 263 266 268 268 270 272
235 235 236 236 236 235 235 235 235 236 236 237 237 238 238 238 238 238 238 239 240 241 241 242 243 243 244 245 246 248 252 255 257 258 260 262 264 266 268 268 270 272
236 236 236 236 236 236 235 235 236 236 236 237 238 238 238 238 239 239 239 240 241 241 242 242 242 244 245 246 247 249 252 254 256 258 260 262 264 266 267 269 270 271
238 237 236 236 236 236 236 236 236 237 237 237 237 238 238 239 239 240 241 241 242 242 241 242 243 245 246 246 247 248 251 254 256 257 259 261 263 265 267 268 270 271
239 238 237 236 235 235 236 236 236 237 238 238 237 237 238 239 239 240 241 241 241 241 241 242 244 246 246 246 247 248 251 253 255 256 258 260 263 265 266 268 269 270
240 239 238 237 236 236 236 236 236 237 238 238 238 238 238 239 239 240 240 241 242 242 242 243 244 245 245 246 247 248 251 253 254 256 258 260 262 265 266 267 268 269
242 241 240 239 238 238 237 236 236 237 237 237 238 238 239 239 239 239 240 241 242 243 243 244 245 246 246 247 247 249 250 252 254 256 258 259 260 262 263 266 268 269
245 243 242 240 240 239 238 237 237 236 236 237 237 238 238 238 238 239 240 241 242 243 244 245 246 246 247 248 248 248 249 252 254 256 256 257 257 259 262 265 267 268